Regional Weather Roundup
Issued by NWS Sioux Falls, SD

Home | Current Version | Previous Version | Graphics & Text | Print | Product List | Glossary On
Versions: 1 2 3 4 5 6 7 8 9 10 11 12 13 14 15 16 17 18 19 20 21 22 23 24 25 26 27 28 29 30 31 32 33 34 35 36 37 38 39 40 41 42 43 44 45 46 47 48 49 50
000
ASUS43 KFSD 050002
RWRFSD

WEATHER ROUNDUP FOR SE SOUTH DAKOTA/SW MINNESOTA/NW IOWA
NATIONAL WEATHER SERVICE SIOUX FALLS SD
700 PM CDT SAT JUL 04 2015

NOTE: "FAIR" INDICATES FEW OR NO CLOUDS BELOW 12,000 FEET WITH NO
SIGNIFICANT WEATHER AND OR OBSTRUCTIONS TO VISIBILITY.


SDZ038>040-050-052>070-050100-
SOUTHEAST SOUTH DAKOTA

CITY           SKY/WX    TMP DP  RH WIND       PRES   REMARKS
BROOKINGS      MOSUNNY   81  64  57 S14       29.88F
CHAMBERLAIN    NOT AVBL
HURON          SUNNY     82  66  58 S17G28    29.78F
6HR MIN TEMP:  82; 6HR MAX TEMP:  85;

MADISON        FAIR      79  66  65 S17       29.87F
MITCHELL       SUNNY     83  68  60 SE14G23   29.81F
6HR MIN TEMP:  82; 6HR MAX TEMP:  85;

SIOUX FALLS    PTSUNNY   79  64  60 S14       29.88F
6HR MIN TEMP:  79; 6HR MAX TEMP:  82;

WINNER         FAIR      92  62  36 S20G26    29.77F
YANKTON        SUNNY     81  64  57 S16       29.85F
$$

MNZ071-072-080-081-089-090-097-098-050100-
SOUTHWEST MINNESOTA

CITY           SKY/WX    TMP DP  RH WIND       PRES   REMARKS
FAIRMONT       MOSUNNY   79  59  50 S12       29.92S
JACKSON        SUNNY     81  61  50 S9        29.92F
LUVERNE        MOSUNNY   81  63  54 S12       29.90F
MARSHALL       SUNNY     81  61  50 S9          N/A
6HR MIN TEMP:  81; 6HR MAX TEMP:  82;

MONTEVIDEO     SUNNY     82  66  57 S8        29.85F
PIPESTONE      SUNNY     79  63  57 SW15      29.90S
REDWOOD FALLS  SUNNY     82  64  54 S13       29.87F HAZE
TRACY          SUNNY     81  63  54 S9        29.88F
WINDOM         SUNNY     79  61  53 S9        29.91S
WORTHINGTON    SUNNY     79  61  53 S13G18    29.91F
$$

IAZ001>003-012>014-020>022-031-032-NEZ013-014-SDZ071-050100-
NORTHWEST IOWA

CITY           SKY/WX    TMP DP  RH WIND       PRES   REMARKS
DENISON        PTSUNNY   77  63  61 S5G12     29.92S
ESTHERVILLE    MOSUNNY   77  61  57 S12       29.93S
SIOUX CITY     SUNNY     81  64  56 S13       29.90S
6HR MIN TEMP:  79; 6HR MAX TEMP:  83;

SPENCER        SUNNY     80  58  46 S10       29.92F
6HR MIN TEMP:  79; 6HR MAX TEMP:  83;

$$

ABBREVIATIONS USED IN REMARKS
   TC - TEMPERATURE IN CELSIUS
  WCI - WIND CHILL INDEX
   HX - HEAT INDEX
  VSB - VISIBILITY




USA.gov is the U.S. government's official web portal to all federal, state and local government web resources and services.